GCDDG EICK-EGBB

Flight info

Callsign GCDDG
Flight time N/A
Altitude 19000
Route VAPAL1S VAPAL DCT BANBA DCT DIQSE DCT ICOSA DCT ZIPWE/N0274F230 L180 FIGZI
Aircraft SF50/L-SDGRWY/L

Departure

Time 2026-05-06 19:20
Airport Cork International Airport (EICK)

Arrival

Time N/A
Airport Birmingham Airport (EGBB)
Time Latitude Longitude Altitude Speed Heading
2026-05-06 19:15 51.84528 -8.48910 498 ft 0 kts 339°
2026-05-06 19:15 51.84522 -8.48910 494 ft 1 kts 144°
2026-05-06 19:15 51.84516 -8.48903 496 ft 6 kts 146°
2026-05-06 19:16 51.84491 -8.48925 495 ft 3 kts 229°
2026-05-06 19:16 51.84489 -8.48930 496 ft 0 kts 238°
2026-05-06 19:16 51.84489 -8.48931 497 ft 0 kts 240°
2026-05-06 19:17 51.84464 -8.48996 498 ft 11 kts 209°
2026-05-06 19:17 51.84406 -8.49003 498 ft 6 kts 158°
2026-05-06 19:17 51.84383 -8.48996 498 ft 3 kts 182°
2026-05-06 19:17 51.84362 -8.49015 495 ft 19 kts 218°
2026-05-06 19:18 51.84316 -8.49202 492 ft 17 kts 345°
2026-05-06 19:18 51.84433 -8.49283 495 ft 20 kts 335°
2026-05-06 19:18 51.84592 -8.49382 493 ft 34 kts 340°
2026-05-06 19:18 51.84767 -8.49463 498 ft 13 kts 313°
2026-05-06 19:19 51.84728 -8.49466 498 ft 5 kts 162°
2026-05-06 19:19 51.84713 -8.49456 498 ft 0 kts 157°
2026-05-06 19:19 51.84691 -8.49442 495 ft 25 kts 160°
2026-05-06 19:19 51.84272 -8.49192 498 ft 102 kts 159°
2026-05-06 19:20 51.83577 -8.48763 634 ft 109 kts 161°
2026-05-06 19:20 51.82918 -8.48633 1287 ft 104 kts 217°
2026-05-06 19:20 51.83389 -8.49285 1424 ft 144 kts 336°
2026-05-06 19:20 51.84337 -8.50022 1550 ft 138 kts 330°
2026-05-06 19:21 51.85127 -8.50687 990 ft 128 kts 335°
2026-05-06 19:21 51.85410 -8.50003 680 ft 85 kts 129°
2026-05-06 19:21 51.84956 -8.49588 500 ft 62 kts 161°
2026-05-06 19:21 51.84839 -8.49507 494 ft 0 kts 155°
2026-05-06 19:22 51.84838 -8.49506 494 ft 4 kts 162°
2026-05-06 19:22 51.84531 -8.49343 495 ft 84 kts 162°
2026-05-06 19:22 51.83779 -8.48883 558 ft 139 kts 158°
2026-05-06 19:22 51.82886 -8.48219 1100 ft 154 kts 148°
2026-05-06 19:23 51.81943 -8.46873 1251 ft 200 kts 133°
2026-05-06 19:23 51.81358 -8.45654 1632 ft 214 kts 126°
2026-05-06 19:23 51.80609 -8.43447 2172 ft 233 kts 115°
2026-05-06 19:23 51.80076 -8.40905 2830 ft 245 kts 105°
2026-05-06 19:24 51.79791 -8.38141 3473 ft 253 kts 96°
2026-05-06 19:24 51.79775 -8.35265 4117 ft 257 kts 87°
2026-05-06 19:24 51.80030 -8.32409 4773 ft 259 kts 78°
2026-05-06 19:24 51.80549 -8.29609 5411 ft 259 kts 70°
2026-05-06 19:25 51.81309 -8.27011 6259 ft 251 kts 60°
2026-05-06 19:25 51.82264 -8.24712 7094 ft 244 kts 51°
2026-05-06 19:25 51.83399 -8.22706 7945 ft 240 kts 43°
2026-05-06 19:25 51.84690 -8.21001 8555 ft 249 kts 35°
2026-05-06 19:26 51.86201 -8.19519 9039 ft 258 kts 26°
2026-05-06 19:26 51.87866 -8.18350 9524 ft 263 kts 19°
2026-05-06 19:26 51.89639 -8.17531 9997 ft 266 kts 11°
2026-05-06 19:26 51.91472 -8.17083 10435 ft 266 kts
2026-05-06 19:27 51.93252 -8.16315 10858 ft 268 kts 25°